Location: Briarstone Lake
(43.1454°N, 93.2359°W)
Time: 07:11:50
(UTC+00:00)

ARIANE 6 FM1 Upper Stage - Visible Passes

Search period start: 20 January 2026 00:00
Search period end: 30 January 2026 00:00
Orbit: 522 x 610 km, 62.0° (Epoch: 19 January)

Date Brightness Start Highest point End Pass type
(mag) Time Alt. Az. Time Alt. Az. Time Alt. Az.
20 Jan 4.6 01:34:37 10° SSW 01:36:04 21° SSW 01:36:04 21° SSW visible
21 Jan 3.9 01:34:41 10° SW 01:37:07 35° SW 01:37:07 35° SW visible
21 Jan 4.5 23:58:18 10° SE 00:00:24 14° ESE 00:01:59 11° E visible
22 Jan 3.5 01:34:54 10° SW 01:38:02 48° WSW 01:38:02 48° WSW visible
22 Jan 4.1 23:57:21 10° SSE 00:00:24 20° ESE 00:02:51 13° ENE visible
23 Jan 3.6 01:35:16 10° WSW 01:38:54 43° WNW 01:38:54 43° WNW visible
23 Jan 3.6 23:56:50 10° S 00:00:26 30° ESE 00:03:36 12° ENE visible
24 Jan 4.1 01:35:46 10° WSW 01:39:24 31° NW 01:39:39 31° NW visible
24 Jan 3.0 23:56:35 10° SSW 00:00:30 45° ESE 00:04:16 10° NE visible
25 Jan 4.5 01:36:24 10° W 01:39:41 23° NW 01:40:18 22° NNW visible
25 Jan 2.6 23:56:32 10° SSW 00:00:36 69° SE 00:04:35 10° NE visible
26 Jan 4.8 01:37:11 10° W 01:40:00 18° NW 01:40:52 17° NNW visible
26 Jan 2.7 23:56:37 10° SW 00:00:43 80° NW 00:04:44 10° NE visible
27 Jan 5.1 01:38:10 10° WNW 01:40:20 14° NNW 01:41:22 13° NNW visible
27 Jan 3.2 23:56:51 10° SW 00:00:51 54° NW 00:04:48 10° NNE visible
28 Jan 5.3 01:39:32 10° NW 01:40:43 11° NNW 01:41:47 10° NNW visible
28 Jan 3.8 23:57:14 10° WSW 00:01:03 37° NW 00:04:48 10° NNE visible
